Printer-friendly version
Follow the MPC on Twitter Follow the MPC on Facebook The MPC blog
Minor Planet Center

MPEC 2009-V29 : 2009 VS

The following Minor Planet Electronic Circular may be linked-to from your own Web pages, but must not otherwise be redistributed electronically.

A form allowing access to any MPEC is at the bottom of this page.


Read MPEC 2009-V28 Read MPEC 2009-V30


M.P.E.C. 2009-V29                                Issued 2009 Nov.  9, 12:38 UT

     The Minor Planet Electronic Circulars contain information on unusual
         minor planets and routine data on comets.  They are published
   on behalf of Commission 20 of the International Astronomical Union by the
          Minor Planet Center, Smithsonian Astrophysical Observatory,
                          Cambridge, MA 02138, U.S.A.

             Prepared using the Tamkin Foundation Computer Network

                              MPC@CFA.HARVARD.EDU
          URL http://www.cfa.harvard.edu/iau/mpc.html  ISSN 1523-6714

                                    2009 VS

Observations:
     K09V00S* C2009 11 08.25609 02 53 10.10 +23 45 31.2          18.7 V EV029703
     K09V00S  C2009 11 08.26340 02 53 11.76 +23 43 15.7          18.4 V EV029703
     K09V00S  C2009 11 08.27062 02 53 13.30 +23 41 02.5          19.1 V EV029703
     K09V00S  C2009 11 08.27785 02 53 15.03 +23 38 50.7          18.7 V EV029703
     K09V00S  C2009 11 08.30139 02 53 20.31 +23 31 36.1          18.9 R EV029854
     K09V00S  C2009 11 08.30351 02 53 20.72 +23 30 57.0          19.3 R EV029854
     K09V00S  C2009 11 08.30563 02 53 21.26 +23 30 17.7          19.3 R EV029854
     K09V00S  C2009 11 08.31113 02 53 22.41 +23 28 34.8          18.9 V EV029703
     K09V00S  C2009 11 08.31176 02 53 22.54 +23 28 22.6          19.0 V EV029703
     K09V00S  C2009 11 08.31228 02 53 22.67 +23 28 14.2          18.7 V EV029703
     K09V00S  C2009 11 08.31280 02 53 18.94 +23 27 49.2          18.2 R EV029850
     K09V00S  C2009 11 08.32492 02 53 21.71 +23 24 04.8          18.6 R EV029850
     K09V00S  C2009 11 08.32749 02 53 22.28 +23 23 16.7          18.4 R EV029850
     K09V00S  C2009 11 08.33008 02 53 22.89 +23 22 29.1          18.5 R EV029850
     K09V00S  C2009 11 08.37375 02 53 34.77 +23 08 58.9          18.9 R EV029H36
     K09V00S  C2009 11 08.37809 02 53 35.87 +23 07 39.3          18.4 R EV029H36
     K09V00S  C2009 11 08.38392 02 53 37.31 +23 05 52.1          18.8 R EV029H36
     K09V00S  C2009 11 08.38829 02 53 38.30 +23 04 31.6          18.4 R EV029H36
     K09V00S  C2009 11 08.42067 02 53 47.12 +22 55 08.4          19.3 R EV029926
     K09V00S  C2009 11 08.42233 02 53 47.50 +22 54 38.1          19.2 R EV029926
     K09V00S  C2009 11 08.42399 02 53 47.89 +22 54 07.8          19.2 R EV029926
     K09V00S  C2009 11 08.87106 02 55 57.33 +20 44 19.6                 EV029J95
     K09V00S  C2009 11 08.87366 02 55 57.84 +20 43 37.4          19.4 R EV029J95
     K09V00S  C2009 11 09.31321 02 57 35.49 +18 47 27.7          18.8 V EV029G96
     K09V00S  C2009 11 09.32026 02 57 36.64 +18 45 39.2          19.0 V EV029G96
     K09V00S  C2009 11 09.32743 02 57 37.87 +18 43 49.0          18.7 V EV029G96
     K09V00S  C2009 11 09.33452 02 57 39.06 +18 41 59.8          18.7 V EV029G96
     K09V00S  C2009 11 09.35096 02 57 41.79 +18 37 50.2          19.3 R EV029926
     K09V00S  C2009 11 09.35262 02 57 42.07 +18 37 24.7          19.5 R EV029926
     K09V00S  C2009 11 09.35427 02 57 42.36 +18 36 59.4          19.3 R EV029926
     K09V00S  C2009 11 09.38669 02 57 47.52 +18 28 35.1          18.5 R EV029H01
     K09V00S  C2009 11 09.39226 02 57 48.49 +18 27 09.7          18.5 R EV029H01
     K09V00S  C2009 11 09.40100 02 57 50.04 +18 24 56.0          18.4 R EV029H01
     K09V00S  C2009 11 09.40579 02 57 50.89 +18 23 42.8          18.5 R EV029H01

Observer details:
703 Catalina Sky Survey.  Observer A. Boattini.  Measurers E. C. Beshore,
    A. Boattini, G. J. Garradd, A. R. Gibbs, A. D. Grauer, R. E. Hill,
    R. A. Kowalski, S. M. Larson, R. H. McNaught.  0.68-m Schmidt + CCD.
850 Cordell-Lorenz Observatory, Sewanee.  Observers D. T. Durig,
    M. Z. Georgieva.  0.30-m f/2.5 Schmidt-Cassegrain + 765x510 CCD.
854 Sabino Canyon Observatory, Tucson.  Observer J. E. McGaha.  0.36-m f/10.0
    Schmidt-Cassegrain + CCD.
926 Tenagra II Observatory.  Observers P. R. Holvorcem, M. Schwartz.  Measurer
    P. R. Holvorcem.  0.81-m f/7 Ritchey-Chretien + CCD.
G96 Mt. Lemmon Survey.  Observer E. Beshore.  Measurers E. C. Beshore,
    A. Boattini, G. J. Garradd, A. R. Gibbs, A. D. Grauer, R. E. Hill,
    R. A. Kowalski, S. M. Larson, R. H. McNaught.  1.5-m reflector + CCD.
H01 Magdalena Ridge Observatory, Socorro.  Observer W. H. Ryan.  2.4-m f/8.9
    reflector + CCD.
H36 Sandlot Observatory, Scranton.  Observer G. Hug.  0.56-m reflector + CCD.
J95 Great Shefford.  Observer P. Birtwhistle.  0.40-m f/6.0 Schmidt-Cassegrain
    + CCD.

Orbital elements:
2009 VS                                                  Earth MOID = 0.0378 AU
Epoch 2010 Jan. 4.0 TT = JDT 2455200.5                  MPC
M  77.68093              (2000.0)            P               Q
n   0.67347301     Peri.  105.62285     +0.86965103     +0.46058858
a   1.2890089      Node   227.33016     -0.49201767     +0.83806274
e   0.3338026      Incl.   13.98296     +0.04032002     +0.29241923
P   1.46           H   24.9           G   0.15           U   7
Residuals in seconds of arc
091108 703  0.3-  0.2-    091108 850  0.1+  0.4-    091109 G96  0.5-  0.1-
091108 703  0.2-  0.6-    091108 850  0.1+  0.0     091109 G96  0.0   0.1-
091108 703  1.5-  0.4-    091108 H36  0.3-  0.2-    091109 G96  0.1+  0.3-
091108 703  0.0   1.3+    091108 H36  0.5+  0.0     091109 926  0.1-  0.1+
091108 854  0.2+  0.6+    091108 H36  1.0+  0.0     091109 926  0.1-  0.1+
091108 854  0.7-  0.6+    091108 H36  0.1+  0.2-    091109 926  0.1+  0.1+
091108 854  0.3+  0.4+    091108 926  0.1-  0.7+    091109 H01  0.1-  0.2+
091108 703  0.5-  0.8-    091108 926  0.2-  0.7+    091109 H01  0.3-  0.0
091108 703  0.7-  1.4-    091108 926  0.1-  0.8+    091109 H01  0.2-  0.0
091108 703  0.5-  0.2-    091108 J95  0.6+  0.3-    091109 H01  0.3-  0.0
091108 850  1.4+  0.4-    091108 J95  0.1-  0.3+
091108 850  0.5+  0.0     091109 G96  0.1-  0.1-

Ephemeris:
2009 VS                  a,e,i = 1.29, 0.33, 14                  q = 0.8587
Date    TT    R. A. (2000) Decl.     Delta      r     Elong.  Phase     V
2009 11 05    02 25.95   +46 03.1    0.0405   1.027   149.4    29.4    19.3
2009 11 06    02 37.70   +37 59.6    0.0435   1.032   157.9    21.2    19.2
2009 11 07    02 45.86   +31 01.3    0.0472   1.037   165.2    14.2    19.2
2009 11 08    02 51.84   +25 07.3    0.0516   1.042   171.4     8.2    19.1
2009 11 09    02 56.40   +20 10.7    0.0565   1.047   176.6     3.2    19.1
2009 11 10    02 59.97   +16 02.8    0.0618   1.052   179.0     1.0    19.1
2009 11 11    03 02.84   +12 34.9    0.0675   1.057   175.2     4.5    19.6
2009 11 12    03 05.20   +09 39.9    0.0733   1.063   172.0     7.5    19.9
2009 11 13    03 07.17   +07 11.5    0.0794   1.068   169.2    10.0    20.2
2009 11 14    03 08.84   +05 04.9    0.0857   1.073   166.8    12.2    20.4
2009 11 15    03 10.27   +03 16.3    0.0921   1.078   164.6    14.1    20.7
2009 11 16    03 11.52   +01 42.6    0.0986   1.084   162.7    15.7    20.9
2009 11 17    03 12.61   +00 21.3    0.105    1.089   161.0    17.2    21.1
2009 11 18    03 13.59   -00 49.5    0.112    1.094   159.4    18.5    21.3
2009 11 19    03 14.47   -01 51.3    0.119    1.100   158.0    19.7    21.5
2009 11 20    03 15.27   -02 45.6    0.126    1.105   156.7    20.7    21.6
2009 11 21    03 16.00   -03 33.3    0.133    1.110   155.5    21.7    21.8
2009 11 22    03 16.68   -04 15.3    0.140    1.116   154.3    22.6    21.9
2009 11 23    03 17.32   -04 52.3    0.147    1.121   153.3    23.4    22.1
2009 11 24    03 17.92   -05 24.9    0.154    1.126   152.2    24.1    22.2
2009 11 25    03 18.49   -05 53.7    0.162    1.132   151.3    24.8    22.4

Timothy B. Spahr             (C) Copyright 2009 MPC           M.P.E.C. 2009-V29

Read MPEC 2009-V28 Read MPEC 2009-V30


MPEC number:

Enter an MPEC number in one of the following forms:

  • 1997-B01 (the full form)
  • J97B01 (the packed version of the full form)
  • B01 (the abbreviated form)

Valid HTML 4.01!